User: anonymous   Login
Location: *
(46.1006°N, 1.8394°E)
Time: 04:23:07
(UTC+00:00)
Language:

Cosmos 2297 Rocket - Orbit

View from above orbital plane
View from above orbital plane
View from above satellite
View from above satellite

Ground track
Ground track

The orbit data is extracted from the following two-line orbital elements,

1 23405U 94077B   19324.98565418  .00000189  00000-0  12177-3 0  9995
2 23405  70.9800 150.8876 0001412   0.2589 359.8534 14.15214842290973
Epoch (UTC): 20 November 2019 23:39:20
Eccentricity: 0.0001412
inclination: 70.9800°
perigee height: 840 km
apogee height: 842 km
right ascension of ascending node: 150.8876°
argument of perigee: 0.2589°
revolutions per day: 14.15214842
mean anomaly at epoch: 359.8534°
orbit number at epoch: 29097

The dashed part of the orbit path shows where the satellite is in the earth's shadow,  

DLR